Wind_Speed
9 9 8 7 3 1 2 2 1 1 0 4 3 2 3 1 3 5 7 8 7 6 4 7 11 7 2 1 4 4 4 1 1 1 2 4 9 15 11 13 17 16 14 13 13 12 11 10 10 10 10 10 11 11 12 12 12 12 11 10 10 10 11 10 11 13 14 13 14 14 14 15 15 14 14 13 12 12 12 13 15 16 18 18 18 17 17 17 16 16 16 16 17 17 16 17 18
9 9 7 5 3 2 1 1 0 2 2 4 2 2 3 2 5 7 9 8 5 8 8 10 10 5 3 3 6 4 4 4 2 1 3 8 11 9 9 13 16 16 14 13 13 10 9 9 9 9 8 8 9 10 10 11 11 11 10 10 9 10 11 10 10 11 12 13 13 13 14 14 14 14 14 14 12 12 12 11 13 16 17 17 18 18 17 17 17 16 16 15 15 15 15 16 16
9 7 6 4 2 2 0 1 1 2 4 5 3 2 2 4 6 7 7 4 7 10 11 11 8 4 3 5 3 1 3 4 3 5 6 11 10 8 11 13 15 16 14 14 12 9 9 9 8 8 7 8 8 9 9 9 9 9 9 9 9 9 10 10 9 10 11 12 12 13 14 13 13 13 14 14 12 13 13 11 11 14 16 17 17 17 17 17 17 17 17 16 14 13 14 15 16
7 5 4 3 1 1 0 0 0 1 4 4 4 3 2 4 7 6 4 4 10 12 11 11 6 2 1 4 2 2 3 3 5 6 7 10 7 11 14 13 14 13 13 13 11 10 9 8 8 8 7 7 7 8 8 8 8 9 8 8 9 8 8 9 9 10 10 11 11 12 13 12 13 13 14 14 13 13 14 11 9 11 14 17 17 17 17 16 17 18 18 17 15 12 12 14 15
6 3 1 2 1 0 0 1 0 1 3 2 4 4 2 5 8 7 6 6 9 12 11 9 4 3 4 6 2 1 3 4 6 5 8 8 8 14 14 13 13 10 11 10 10 10 8 8 8 7 7 6 7 7 8 7 8 9 8 8 9 8 8 8 9 10 10 11 11 11 12 12 12 13 14 13 13 14 14 10 7 9 12 16 17 16 17 16 16 17 18 18 16 14 12 12 14
4 1 0 1 0 0 1 2 2 3 3 0 3 4 4 6 8 10 9 7 7 9 9 5 5 7 6 6 4 3 2 3 5 6 7 8 11 14 14 14 12 10 9 9 10 9 8 7 7 7 6 6 6 6 7 7 7 9 9 9 9 9 8 8 9 10 10 11 10 11 11 11 12 13 14 12 13 13 13 11 7 8 11 14 17 16 16 16 16 16 16 16 16 16 13 11 13
2 1 0 1 1 0 0 4 3 3 3 1 2 5 6 8 9 11 11 9 7 6 5 5 8 9 6 3 4 5 1 1 5 6 8 11 14 13 13 13 10 9 8 8 9 8 8 7 6 6 6 6 4 5 5 6 7 7 8 9 9 9 9 9 9 9 10 11 10 10 10 11 11 12 13 12 12 11 12 13 8 7 10 14 16 16 16 16 16 16 16 15 16 16 13 11 11
2 1 0 0 1 1 1 5 4 3 3 2 2 4 7 9 8 10 10 7 7 6 6 8 6 6 5 1 3 5 3 4 6 8 11 14 14 13 12 12 10 9 8 8 8 7 7 6 6 6 6 6 4 4 5 6 7 6 7 9 9 9 10 10 10 9 10 11 11 11 11 11 11 11 13 12 12 10 11 13 9 8 11 14 15 15 15 16 16 15 15 14 15 15 14 12 10
1 1 1 1 2 3 3 4 4 3 4 4 4 5 6 6 4 8 9 6 6 7 6 6 2 3 6 5 5 4 4 7 10 12 13 14 14 13 12 10 10 9 8 7 7 7 7 7 7 7 7 6 4 4 5 6 7 6 6 8 9 9 11 11 10 10 10 10 10 10 11 11 11 11 13 13 12 11 12 14 9 8 11 14 15 14 15 15 15 14 14 14 14 14 14 11 9
1 0 0 0 3 5 5 4 4 3 4 5 5 6 5 3 3 6 8 8 7 7 6 5 5 7 9 7 5 3 5 10 13 14 12 13 13 12 11 10 9 9 9 7 7 6 7 7 7 7 6 6 5 3 5 6 7 6 5 7 9 8 11 11 10 10 10 11 10 10 11 11 11 11 12 12 11 11 12 13 9 9 12 14 15 14 14 14 14 13 13 14 13 13 13 9 8
1 1 0 1 4 6 5 5 5 4 5 5 6 5 3 3 5 6 7 8 6 7 7 5 9 11 10 6 4 5 8 11 14 15 13 12 11 11 10 9 8 9 8 8 7 6 7 7 7 7 5 6 5 3 5 6 7 6 5 6 8 8 10 11 10 11 11 10 10 11 11 11 12 11 12 11 11 11 12 12 10 11 12 13 14 13 14 13 13 12 12 13 12 12 11 8 8
1 1 1 2 4 4 5 6 6 5 5 6 6 3 3 5 6 7 8 8 7 8 5 2 8 9 9 6 4 7 10 11 12 14 12 11 11 11 9 8 8 8 8 8 7 7 8 8 8 7 5 6 7 5 6 6 7 7 6 6 8 8 9 10 10 11 11 10 12 12 11 12 12 11 11 11 11 11 11 10 10 11 12 12 12 12 12 12 12 11 11 11 11 10 8 7 7
1 1 1 3 3 3 6 6 6 6 5 4 3 2 4 5 5 7 8 9 7 6 4 4 9 7 6 7 6 8 9 10 12 13 12 11 11 9 9 8 9 8 8 8 8 8 8 9 9 7 4 6 8 6 6 7 8 8 8 7 7 8 8 9 10 11 11 10 12 13 12 12 12 10 10 11 11 11 11 10 10 10 11 11 11 11 10 10 10 10 10 9 8 7 7 7 6
2 1 1 3 2 3 5 4 6 6 5 3 2 3 4 3 4 6 7 10 6 3 6 7 8 7 8 7 6 7 9 11 12 12 11 11 10 9 9 9 9 8 8 7 8 8 9 10 9 7 4 5 8 7 7 8 8 9 9 8 8 8 8 9 10 10 11 10 11 13 13 13 12 10 11 11 10 11 11 10 10 10 10 10 9 9 9 9 9 9 9 7 6 6 6 6 5
2 1 1 3 3 4 3 2 5 5 4 3 3 5 5 4 4 5 4 6 6 5 8 7 3 3 7 8 6 9 11 14 13 13 12 11 10 9 9 9 9 8 7 7 7 8 9 10 9 7 5 4 7 8 8 8 8 9 9 9 8 8 8 10 10 10 10 10 12 13 13 13 11 10 11 11 10 11 11 10 10 9 9 8 8 8 8 8 8 8 6 5 5 5 4 4 4
2 1 1 2 4 5 3 2 4 4 4 4 5 6 8 6 3 4 3 3 8 6 4 4 1 0 7 7 8 14 15 15 14 13 13 11 10 9 9 8 8 7 6 7 7 9 9 9 8 7 5 4 8 9 9 9 9 10 10 10 10 9 9 10 11 10 10 11 13 13 13 13 11 9 11 11 11 12 11 10 9 9 9 8 7 7 7 7 7 6 5 4 3 3 2 2 2
1 1 1 2 2 3 3 4 3 3 5 5 7 7 9 7 3 4 4 6 10 7 5 4 2 3 9 9 13 18 17 15 14 13 12 11 9 8 9 8 8 7 6 6 7 8 9 9 8 7 5 5 9 11 10 10 10 10 11 11 11 10 10 11 12 11 11 11 12 13 13 13 10 8 10 12 12 12 11 11 11 10 10 9 9 8 7 6 5 4 4 3 2 1 1 2 2
1 1 1 2 1 1 2 3 3 2 6 8 8 8 10 10 6 6 7 8 9 9 8 7 8 8 12 15 19 18 16 16 14 13 12 10 9 9 9 7 7 7 6 6 6 7 8 9 9 8 6 6 10 12 11 10 10 11 13 12 12 12 11 12 13 13 13 12 12 13 13 12 10 9 10 12 12 12 12 12 12 12 12 11 10 9 8 6 5 5 4 3 2 1 2 3 3
0 1 1 1 0 1 0 2 4 3 6 8 7 8 9 10 9 6 6 8 9 10 9 9 12 12 14 18 19 17 17 16 13 12 11 10 9 9 9 7 7 7 7 6 6 6 8 10 10 9 8 7 9 10 11 11 11 12 13 12 12 13 13 13 14 15 16 15 14 14 13 11 10 10 11 11 12 12 12 12 13 12 12 13 12 11 10 9 8 7 5 4 3 3 3 4 5
1 1 1 1 1 1 1 3 3 3 7 10 7 7 7 8 8 5 7 10 8 9 9 10 13 13 16 18 18 18 16 14 13 12 10 10 9 8 8 7 7 7 7 6 6 6 8 11 11 10 9 8 9 10 11 12 12 11 11 11 11 12 13 13 13 14 15 15 14 13 12 11 10 11 11 11 12 12 12 13 13 13 13 13 12 12 11 10 8 7 5 4 4 4 5 5 6
1 1 1 2 1 2 0 2 3 5 8 10 8 8 8 6 5 6 11 9 5 7 8 10 15 17 18 17 17 17 15 14 13 11 10 10 8 8 7 7 6 7 7 7 7 7 8 11 11 11 10 9 9 9 11 12 12 12 10 11 11 11 12 12 12 12 12 12 11 11 11 10 11 11 12 12 12 12 13 13 13 13 12 11 11 11 10 9 8 6 5 4 5 5 6 6 7
1 1 2 3 2 2 1 3 4 7 8 9 9 9 8 7 5 9 12 5 3 6 7 10 16 18 18 18 17 16 15 14 12 11 10 9 9 8 7 7 7 7 8 8 8 8 9 10 12 12 11 10 10 10 11 11 12 13 11 12 12 11 11 11 11 10 10 11 10 10 10 10 11 12 12 12 13 13 13 12 12 12 11 11 11 10 9 8 7 6 6 6 6 6 6 7 8
3 1 1 2 2 1 1 4 4 7 9 10 9 8 8 8 7 8 6 1 2 7 8 12 15 16 18 18 17 15 14 13 12 12 10 10 9 8 8 7 7 8 8 8 8 8 9 11 12 13 13 12 12 11 11 11 12 12 11 11 11 11 11 11 10 9 9 10 9 9 9 10 11 11 12 12 12 12 12 11 11 11 11 10 10 9 8 7 7 6 7 7 8 7 7 8 7
4 1 2 3 3 2 2 4 3 6 9 8 7 8 9 8 8 6 2 2 5 10 11 13 15 16 17 16 15 14 13 13 12 11 10 9 9 8 8 7 7 8 8 9 8 8 10 11 11 12 13 13 13 11 11 11 11 11 11 11 11 12 11 10 10 9 9 8 8 10 10 10 11 10 11 11 11 11 10 10 10 10 10 9 9 8 8 7 7 7 8 9 10 10 10 10 8
5 2 2 3 4 4 4 4 4 5 6 7 8 8 5 4 7 7 3 4 8 11 13 14 15 15 14 13 14 13 12 13 12 11 10 8 8 8 7 7 8 8 9 9 9 9 10 10 11 12 13 13 13 12 11 11 11 11 12 11 11 12 11 10 10 9 8 8 9 10 11 11 10 10 10 10 10 10 9 10 9 9 9 8 8 8 8 8 8 9 10 11 11 11 11 10 8
3 1 3 3 4 4 5 5 6 5 4 5 9 7 3 3 5 6 3 7 10 12 14 15 14 14 12 11 12 12 11 12 12 11 10 8 8 8 8 8 8 8 9 9 9 9 9 10 11 11 12 13 13 13 13 12 11 12 11 11 11 10 10 10 10 9 9 9 10 11 12 11 11 10 10 9 9 9 9 9 9 8 8 8 8 8 8 8 9 10 11 12 12 11 11 9 8
4 5 5 5 5 4 4 6 5 4 4 2 7 7 3 2 3 4 5 9 13 13 14 14 14 13 12 11 10 11 11 12 12 11 10 9 9 9 9 9 9 9 9 10 9 9 9 10 11 11 12 13 14 14 14 13 12 12 11 11 10 9 9 9 9 8 9 9 10 12 12 12 11 9 8 8 8 8 8 8 8 8 8 8 8 8 8 8 9 10 11 12 13 12 10 8 6
7 7 6 5 5 5 5 6 4 3 4 4 6 7 3 2 3 4 9 11 14 14 14 14 13 12 11 11 9 9 10 10 11 11 12 11 10 11 10 10 10 10 10 10 9 9 10 10 11 11 12 13 13 13 13 13 12 12 11 10 10 9 8 8 8 8 8 9 11 11 11 11 10 8 7 7 7 7 7 7 7 7 8 8 8 8 8 8 9 10 11 12 13 12 10 7 5
6 3 3 4 4 5 5 5 4 3 3 6 3 4 2 6 3 4 11 12 13 14 14 14 13 11 11 10 8 7 9 10 10 11 12 11 10 11 11 10 10 10 10 10 10 10 10 10 11 11 11 12 12 12 12 11 11 11 10 10 9 9 8 8 7 7 8 9 10 10 9 9 8 6 6 5 6 6 6 6 6 7 8 8 7 8 8 8 9 10 11 12 12 11 9 7 5
4 1 1 2 2 2 3 3 5 3 1 7 4 2 5 8 3 5 12 13 14 13 13 13 11 10 10 9 8 7 9 10 10 10 11 10 10 11 11 10 10 10 11 11 11 11 11 10 10 10 11 11 11 11 11 10 10 10 10 10 10 10 9 8 7 7 8 8 8 9 8 7 6 5 5 4 5 5 5 6 6 7 7 7 7 7 7 8 9 10 11 12 11 9 8 7 5
2 1 1 0 1 1 1 3 5 1 1 5 4 3 5 8 6 8 12 13 15 14 13 13 11 10 9 8 8 8 9 10 10 10 10 11 10 10 11 11 11 10 11 12 12 12 11 11 11 11 11 11 11 11 10 10 10 10 11 11 11 10 9 7 6 6 6 6 6 7 6 6 5 4 4 3 4 4 4 5 5 7 7 7 7 7 7 8 9 10 12 12 9 7 7 6 4
1 1 1 1 1 1 0 3 5 4 2 0 4 3 2 6 7 10 12 13 15 14 13 13 11 11 10 8 8 7 8 9 10 9 9 10 10 10 11 11 11 11 11 12 12 12 12 11 11 11 12 12 11 11 11 12 12 12 12 11 11 10 8 6 6 5 5 5 5 5 6 5 4 3 3 2 3 3 4 4 5 6 7 7 7 6 7 8 8 9 11 11 8 5 6 5 4
0 1 1 0 1 1 1 3 5 5 4 2 6 3 1 3 7 10 12 13 14 12 13 13 12 12 10 9 8 7 7 8 9 10 10 10 10 10 11 12 12 11 11 12 13 13 13 13 12 12 13 13 12 12 13 13 13 13 12 10 10 10 7 6 6 6 5 5 5 6 6 5 4 3 2 2 3 3 3 3 5 6 7 7 6 6 6 7 8 9 10 9 6 5 5 4 3
1 1 1 1 1 1 1 1 3 6 7 6 6 5 2 2 7 10 13 14 13 12 13 13 12 11 10 9 8 7 7 8 9 11 12 11 10 11 11 12 12 11 11 13 13 13 13 13 12 12 13 13 13 14 14 14 13 13 12 10 9 9 7 6 6 7 6 6 6 6 6 5 4 3 2 2 3 3 3 3 4 5 6 6 6 6 6 7 7 8 9 7 6 5 4 3 3
1 0 1 1 2 2 2 1 3 6 8 8 7 7 4 2 7 9 12 14 13 13 12 12 12 11 10 9 8 8 8 9 9 11 13 12 11 11 11 12 13 12 12 12 13 13 13 12 12 13 14 14 15 15 15 14 13 12 11 9 9 8 7 7 7 7 6 6 6 6 5 5 4 4 3 3 3 3 3 3 4 4 5 5 5 5 5 6 6 7 8 6 5 5 3 2 2
3 2 1 2 2 1 1 1 2 5 7 7 8 8 5 6 10 10 12 14 13 12 11 10 11 11 10 9 8 8 9 10 10 11 13 12 12 12 12 12 13 12 12 13 14 13 14 13 12 13 14 15 15 15 15 13 12 11 10 9 8 7 6 6 7 6 5 5 5 6 5 4 4 3 3 3 4 4 3 2 3 3 4 4 4 5 5 6 6 7 7 6 5 5 4 2 2
3 2 2 3 2 1 0 0 1 3 4 5 8 8 5 7 10 8 11 14 13 12 12 11 11 10 10 10 10 10 10 9 9 11 12 12 12 12 13 13 13 13 13 15 15 14 14 14 12 13 14 15 15 15 15 14 13 11 10 8 7 6 6 6 6 5 4 5 5 5 4 3 2 2 2 2 2 3 2 2 2 2 3 4 4 5 5 6 6 7 7 5 5 5 5 4 2
7 5 3 2 1 0 1 0 2 2 2 2 6 6 6 8 8 5 9 14 14 14 14 13 13 11 9 10 11 10 9 7 8 10 12 12 12 13 13 13 14 14 14 16 16 14 14 14 13 13 13 15 15 16 17 16 15 13 10 9 8 6 6 5 5 6 5 4 4 3 2 1 0 1 1 1 1 1 1 1 2 3 3 3 4 5 5 5 6 7 6 5 5 6 6 5 3
5 3 2 2 0 1 1 0 2 3 1 1 5 6 5 7 7 4 7 12 14 13 13 14 13 12 10 10 11 10 8 7 8 10 12 13 13 14 13 13 15 15 15 16 16 15 15 15 15 14 14 15 15 16 17 16 15 14 11 10 8 5 5 5 5 7 6 5 5 5 4 4 3 2 1 1 0 1 1 1 1 3 3 3 4 4 4 4 5 6 7 6 5 4 5 6 5
3 2 3 2 1 2 1 1 2 3 2 0 5 6 3 4 5 3 3 6 7 7 8 10 11 12 12 12 11 10 10 9 9 11 12 13 13 14 14 13 15 15 15 16 16 16 16 16 17 17 16 15 16 16 16 15 15 13 11 10 8 6 6 6 6 7 7 6 6 7 6 5 4 2 2 2 0 1 0 1 2 2 3 4 4 4 4 4 4 5 7 7 5 4 4 6 6
4 4 5 3 3 3 1 2 3 3 3 1 4 4 2 4 5 5 3 2 4 4 6 8 8 9 10 10 10 10 10 10 11 11 11 13 14 15 15 14 15 15 16 17 18 17 16 17 19 18 17 16 16 16 16 15 14 13 12 11 9 7 6 6 6 6 7 7 6 6 6 5 4 3 3 2 1 1 1 1 2 2 3 4 3 3 3 3 3 4 5 6 6 5 4 4 5
4 4 6 5 4 5 4 5 3 2 2 3 4 3 1 4 7 7 6 6 8 7 8 11 9 9 9 9 11 10 10 11 11 12 13 14 15 15 15 15 15 16 17 18 19 19 17 18 20 20 18 17 16 16 16 16 15 14 14 11 8 7 6 6 7 7 7 7 6 5 4 4 4 4 4 4 2 2 1 2 2 2 3 3 2 2 3 2 2 3 4 5 5 5 4 3 3
4 2 4 5 6 7 7 6 3 1 1 2 4 3 1 1 6 8 8 10 14 10 10 12 9 9 10 11 11 10 11 11 11 12 14 15 16 15 16 17 17 17 17 18 18 18 18 19 21 21 19 18 17 17 17 16 15 15 15 11 9 8 8 8 9 8 8 7 6 5 4 3 4 5 6 6 4 3 2 2 2 2 3 2 2 2 3 3 2 2 4 4 4 5 5 4 3
2 1 4 7 7 7 7 5 2 1 1 2 4 2 1 2 5 7 9 12 15 14 13 12 9 10 12 12 12 11 12 12 11 12 13 15 17 17 18 19 19 19 17 18 18 18 20 22 23 22 20 19 19 18 17 17 16 16 15 13 11 10 9 10 10 9 9 9 8 6 5 4 4 5 7 7 6 5 3 2 2 2 3 3 2 2 3 3 2 2 3 3 3 4 4 4 4
1 4 6 7 7 6 5 3 1 1 2 3 5 4 2 3 2 5 9 11 13 16 17 14 11 11 12 12 13 13 13 13 13 13 13 15 17 19 20 20 20 19 18 18 19 19 21 23 24 22 21 21 20 19 18 17 16 16 15 14 13 12 11 11 11 11 11 10 9 8 6 5 5 5 6 8 8 6 5 4 3 3 3 3 3 3 3 3 3 3 2 3 3 4 4 3 4
5 10 11 9 7 5 3 1 0 1 2 4 5 8 4 3 3 6 9 10 12 13 15 16 14 11 11 12 13 12 12 12 13 14 16 18 19 20 20 19 19 19 18 19 19 18 20 22 23 22 22 22 22 21 19 17 16 16 16 15 14 13 13 13 13 12 12 11 11 10 8 7 6 5 5 6 7 6 5 4 3 3 3 3 3 4 4 4 4 3 3 3 3 3 4 3 3
12 12 11 9 6 4 3 1 1 1 3 3 2 8 6 2 3 7 8 8 11 11 10 12 13 11 11 11 12 12 11 11 12 13 16 19 20 19 18 18 19 19 18 19 19 18 18 20 23 23 23 23 23 22 20 18 18 17 17 17 15 14 14 14 13 13 12 12 11 10 9 8 7 6 5 5 6 6 5 5 4 4 4 4 4 4 4 4 4 4 4 4 3 3 3 3 2
10 7 7 6 4 2 1 1 0 2 2 2 2 5 7 4 3 7 8 6 11 13 10 13 15 13 12 11 12 13 12 12 12 12 13 16 16 16 17 18 18 18 18 19 19 18 18 19 22 23 23 25 24 22 21 19 19 19 19 18 16 15 14 15 14 13 13 12 11 10 9 9 8 7 6 6 6 6 6 6 5 5 5 5 5 5 4 4 4 4 4 4 4 4 3 3 3
5 5 7 4 1 1 2 1 2 3 2 2 2 2 4 5 5 7 10 8 10 14 12 15 18 16 13 12 12 12 12 13 13 12 12 12 14 16 17 17 17 18 19 20 20 19 18 19 22 24 24 26 26 24 22 21 21 21 20 19 17 15 15 15 15 14 13 13 12 11 10 9 9 8 8 8 8 7 7 7 6 6 6 6 6 6 5 5 4 4 4 4 4 4 4 4 4
7 7 6 5 3 3 3 1 2 3 2 1 1 2 2 4 4 7 13 12 11 13 12 15 18 17 14 13 13 12 12 14 13 12 12 11 14 17 18 19 19 19 20 21 21 20 19 19 22 24 25 27 27 25 25 24 23 23 21 19 17 15 15 16 15 14 12 13 13 12 10 9 9 8 8 8 9 8 8 8 7 7 6 7 7 7 7 6 6 5 5 4 4 5 5 4 4
6 2 2 4 4 2 2 2 2 2 1 1 3 3 3 2 0 3 8 10 10 11 10 12 13 13 12 12 12 12 13 13 12 12 13 14 17 19 19 19 20 21 21 21 21 20 20 21 24 25 25 27 28 27 27 26 25 24 22 20 18 16 15 15 16 15 14 14 13 12 12 10 9 8 8 9 9 9 9 8 8 8 7 7 7 8 7 7 6 6 6 6 5 5 5 5 4
2 1 2 3 1 1 1 1 1 0 1 2 3 3 3 2 1 2 4 6 9 10 10 11 10 9 10 11 12 12 12 12 12 12 13 15 18 20 19 20 20 21 21 21 21 21 22 23 25 28 27 28 29 28 28 27 26 25 23 21 19 17 16 15 16 16 15 15 14 13 13 12 11 10 10 10 9 10 10 9 9 8 8 8 8 8 7 7 7 6 7 7 6 5 5 6 6
2 2 3 1 1 1 0 1 1 1 3 2 2 4 2 1 3 4 5 6 10 11 12 13 12 10 11 12 12 12 11 12 12 12 12 15 18 19 20 20 20 21 21 21 22 24 26 27 27 28 27 27 29 29 29 27 26 25 24 23 20 18 16 15 15 15 14 14 15 14 13 12 12 12 11 10 10 11 10 10 10 9 9 9 8 8 8 8 8 7 7 8 7 6 7 7 7
3 3 2 2 2 0 1 1 1 2 4 2 3 5 3 1 2 3 6 8 11 12 13 15 14 13 13 12 11 11 11 11 12 13 13 15 18 19 20 20 21 22 22 24 26 28 30 29 28 27 26 26 27 27 27 26 26 25 24 24 22 19 17 16 14 14 13 13 14 14 13 12 12 11 11 11 11 11 11 11 10 10 9 9 9 9 9 9 9 9 8 9 8 8 8 8 8
1 2 2 0 2 2 1 1 2 2 4 3 2 3 4 4 3 2 7 11 11 12 14 15 17 18 15 12 11 12 12 11 11 12 12 13 17 20 21 21 21 22 22 24 27 27 26 26 25 26 26 26 25 22 22 25 25 22 22 23 23 21 18 17 15 14 13 13 13 12 13 12 11 11 11 11 11 10 10 11 10 10 10 10 10 10 10 10 10 9 8 8 8 8 9 9 8
3 4 2 3 0 2 1 0 2 3 4 4 3 2 2 3 0 1 5 8 10 12 13 14 17 19 15 11 11 11 12 11 10 11 11 13 18 21 22 22 22 23 23 22 23 23 23 23 22 23 23 22 23 21 21 24 23 20 21 23 24 22 19 18 16 15 13 13 12 12 12 11 10 10 10 10 10 10 10 10 9 9 9 10 10 10 9 10 10 9 9 8 8 8 9 9 9
2 3 1 1 1 2 2 1 3 4 4 4 4 5 2 1 2 4 6 6 8 12 12 12 14 15 12 11 11 10 11 11 10 11 12 13 18 21 22 22 22 23 22 20 21 22 22 22 22 23 22 21 21 21 23 25 23 21 23 23 23 22 20 18 17 16 14 13 13 12 12 11 10 11 10 10 11 10 10 10 10 9 9 9 10 10 10 10 10 10 10 10 9 9 10 10 9
1 1 1 1 2 2 2 2 3 4 5 4 5 6 3 3 3 5 5 5 6 10 11 10 11 12 11 10 11 10 11 11 12 12 12 13 17 20 20 21 21 21 20 20 21 21 21 21 22 23 22 22 22 22 25 27 25 24 25 23 22 22 21 19 17 16 15 13 13 13 12 11 11 11 11 11 10 10 10 10 10 9 9 10 11 11 10 9 10 11 11 10 9 9 10 10 10
Wind_Direction
148 158 162 169 170 214 188 201 165 88 213 100 97 111 110 79 120 125 125 133 130 155 154 122 143 146 144 159 141 93 36 133 194 330 85 85 138 153 153 149 154 156 149 147 152 147 147 142 130 128 124 130 133 130 128 130 131 130 128 124 121 113 110 107 111 115 111 108 109 111 111 113 113 110 111 111 111 109 107 112 116 115 115 114 110 108 107 104 100 99 97 95 94 92 92 96 95
153 156 162 174 197 244 151 212 225 108 137 108 105 92 99 139 153 141 142 148 129 150 148 129 142 123 63 104 127 114 59 28 352 52 82 125 135 145 151 149 153 151 145 145 147 142 141 135 127 125 121 122 115 114 115 116 120 127 130 124 125 120 114 107 107 116 115 109 109 109 107 109 108 109 113 112 108 105 101 105 114 116 118 116 113 111 109 106 103 99 94 90 90 95 95 94 93
148 146 166 189 225 226 176 244 178 135 135 116 119 100 134 160 150 139 139 125 113 138 137 133 137 101 103 123 114 45 68 45 112 117 120 143 139 150 151 147 150 145 143 143 140 136 135 129 123 118 113 108 100 103 103 110 119 124 125 122 126 125 118 109 101 108 113 109 107 105 106 108 107 108 110 111 109 111 108 103 110 117 120 119 116 113 109 106 105 102 96 91 88 91 93 94 94
139 139 168 197 241 201 232 72 70 149 130 120 127 131 173 145 132 119 106 100 123 136 136 142 133 56 57 101 78 33 79 86 129 124 140 156 147 148 149 145 145 140 141 140 137 134 127 123 117 110 109 104 99 102 103 112 117 112 113 120 123 124 124 116 104 103 108 109 106 107 110 110 109 110 109 111 112 114 112 105 111 119 121 119 116 113 110 106 104 104 101 100 95 88 85 90 93
135 138 163 221 264 117 226 101 66 119 113 119 131 138 151 125 123 110 99 110 134 143 142 149 124 89 75 66 33 81 98 105 139 149 146 154 143 142 147 146 141 136 138 137 135 129 124 122 116 116 115 111 108 110 114 115 110 106 108 114 115 115 124 126 116 109 111 111 110 112 114 115 114 114 114 115 115 112 110 110 116 118 117 115 114 112 108 104 102 102 101 102 101 94 85 84 91
138 176 275 234 237 225 221 128 125 101 78 28 125 127 135 129 126 116 109 103 122 141 141 137 116 120 100 68 47 67 113 117 141 162 150 148 144 144 146 146 141 136 135 135 131 123 126 125 119 124 119 116 117 120 121 114 106 108 111 111 110 110 117 122 119 114 115 114 115 116 117 123 118 115 117 118 115 111 112 113 115 118 116 113 113 111 107 105 103 101 99 100 100 97 91 85 88
161 233 275 191 157 225 125 112 113 97 71 346 117 131 136 135 132 123 122 118 121 134 131 121 121 117 95 87 85 60 26 123 133 149 145 143 144 145 146 147 140 135 133 130 128 123 127 125 122 123 120 120 117 118 116 115 113 115 116 113 112 113 114 115 116 117 117 117 119 119 122 125 117 117 118 116 113 113 117 114 120 127 117 112 110 110 108 105 103 101 101 100 100 100 100 94 88
177 267 296 241 127 78 92 107 100 85 76 55 91 125 134 140 139 131 133 132 137 142 132 132 130 104 84 100 107 59 43 104 126 133 136 140 144 146 146 144 137 134 131 127 129 128 127 123 121 115 113 114 113 111 107 122 123 122 122 117 119 119 116 115 117 120 119 121 125 121 119 117 114 116 114 112 112 120 122 113 123 128 112 110 108 108 106 105 103 101 100 98 98 100 101 97 95
188 287 246 235 116 105 110 105 101 85 80 99 105 112 128 138 133 129 132 121 129 133 128 145 161 108 107 100 98 78 76 106 119 127 136 141 145 146 144 141 137 137 131 130 132 128 122 116 111 105 101 103 110 110 109 126 126 127 131 123 121 120 121 119 119 123 122 122 125 120 117 115 110 109 109 109 111 123 120 113 124 118 105 105 105 105 104 106 106 102 99 94 94 97 95 96 108
225 338 256 212 124 125 127 115 110 95 87 101 108 124 136 141 106 110 124 122 124 120 110 114 109 121 122 102 93 93 112 120 123 130 140 143 146 145 140 139 137 136 133 130 127 119 111 105 99 98 100 104 110 117 118 125 126 131 139 125 117 122 127 126 126 127 126 123 125 122 118 115 110 106 107 107 108 112 109 116 125 109 101 100 102 105 105 106 106 103 98 93 92 97 97 101 113
272 29 318 152 136 138 136 126 119 108 106 108 111 127 139 135 116 100 110 115 112 117 122 111 109 120 114 99 98 106 124 131 129 135 143 143 144 141 135 136 134 132 130 126 121 111 102 98 90 93 105 109 109 117 116 121 127 126 130 124 117 123 128 129 131 131 129 129 127 124 119 116 112 106 102 100 104 104 103 116 116 101 97 97 102 104 104 103 100 97 91 92 93 98 106 111 108
314 30 327 135 132 134 130 129 126 117 118 126 131 137 147 148 135 125 121 116 118 123 126 134 133 128 110 107 117 124 135 137 132 137 142 140 139 137 133 132 133 132 128 125 121 114 103 95 89 92 109 111 110 111 109 115 119 119 124 126 119 124 130 128 128 128 128 128 125 120 119 117 112 104 97 98 103 104 104 107 101 95 95 95 97 97 98 96 94 94 91 91 92 98 107 111 106
348 20 19 112 115 123 128 131 130 127 128 131 129 123 145 151 136 131 126 118 123 124 105 126 144 129 103 115 125 137 145 140 135 136 139 137 135 134 132 131 134 134 128 126 120 116 107 96 92 97 118 114 112 114 112 112 115 123 127 126 121 124 130 124 122 125 124 124 123 120 121 116 111 109 102 101 104 105 104 100 98 97 96 96 98 97 99 99 99 102 103 102 99 104 109 108 101
358 335 22 109 130 133 125 131 142 142 136 123 107 127 131 101 103 117 120 118 105 100 108 115 131 115 113 130 141 154 151 145 141 136 136 133 133 133 131 134 136 132 124 122 114 111 105 99 98 105 121 113 112 120 116 109 115 126 128 131 128 124 125 118 120 124 120 121 121 120 120 114 113 116 108 102 103 103 100 99 101 101 101 101 102 104 106 107 106 104 104 113 119 119 115 109 95
343 329 30 117 143 144 127 138 147 137 137 146 135 133 103 72 107 104 86 105 94 106 120 119 121 111 145 160 161 159 152 148 143 136 136 131 132 131 131 134 129 123 118 116 108 105 103 102 105 111 131 122 114 124 121 114 117 122 127 134 128 122 123 119 119 121 118 119 118 115 116 116 116 117 110 104 102 99 96 95 97 100 102 100 100 105 109 109 105 101 104 121 132 132 125 107 89
338 318 355 117 149 158 152 153 145 131 148 155 138 130 104 95 105 76 27 93 118 128 118 123 296 276 156 156 144 148 147 146 142 135 134 130 130 129 132 132 121 116 114 115 108 107 106 106 110 117 134 118 109 120 123 120 118 118 123 126 121 120 120 119 119 119 121 121 119 118 116 113 110 112 109 105 101 96 91 88 88 95 99 98 98 99 104 106 104 103 106 123 136 144 133 84 66
312 296 5 95 142 163 166 174 164 143 149 145 150 150 126 120 88 73 86 100 121 120 77 80 44 112 135 129 132 141 143 143 141 136 134 133 135 137 139 136 125 121 119 117 112 113 109 106 112 117 124 110 107 115 120 119 114 115 119 119 120 121 117 116 116 117 118 117 118 116 112 111 113 117 110 105 100 92 86 81 81 85 89 93 95 96 100 104 105 106 105 120 138 131 75 31 25
306 316 35 79 108 142 185 174 138 146 155 149 161 159 141 137 126 122 108 94 110 101 84 87 84 99 113 121 132 139 143 144 143 142 142 143 148 150 148 146 137 130 129 124 115 114 110 109 113 116 119 113 108 111 114 116 115 115 119 120 121 123 120 118 119 119 120 122 126 123 121 127 133 125 111 106 99 91 85 80 80 80 82 86 87 89 90 89 84 81 79 78 67 25 18 6 2
256 353 24 65 108 89 132 144 131 162 159 146 158 158 148 142 135 147 134 123 131 111 104 108 102 109 118 127 138 143 147 147 149 150 150 153 156 156 153 152 143 137 136 127 118 116 115 115 116 118 122 120 115 113 112 115 118 117 117 119 121 123 124 125 127 128 132 136 139 136 135 139 132 119 110 105 99 93 87 84 85 83 82 82 80 79 76 74 69 65 62 54 40 20 13 4 356
214 266 309 63 313 282 190 175 168 159 151 146 154 153 145 143 139 154 140 136 150 138 135 133 128 135 137 139 145 149 151 151 154 156 157 157 157 157 157 157 151 146 140 130 125 123 121 120 118 120 122 123 121 115 114 118 120 118 115 117 119 121 122 124 125 128 135 137 137 136 135 132 121 114 109 103 97 93 90 89 87 84 81 77 74 73 70 68 65 61 55 44 28 14 7 358 349
191 227 282 42 355 274 167 208 188 145 151 146 144 146 141 142 141 146 141 140 171 172 164 150 145 147 147 149 151 154 156 155 159 161 162 160 158 160 161 160 154 147 140 136 130 125 126 123 120 121 120 123 122 114 116 120 122 121 120 118 119 120 118 118 119 121 127 129 130 132 128 121 113 110 106 100 97 95 92 89 83 78 75 71 70 69 67 68 64 58 49 33 20 10 1 352 342
207 228 297 358 310 278 20 249 190 139 144 139 144 152 145 141 142 155 156 157 180 170 169 152 147 150 152 153 154 158 159 159 163 164 165 165 165 164 161 159 151 146 141 139 134 129 129 125 123 123 121 123 123 120 119 121 124 124 123 121 119 117 115 115 115 117 121 123 126 125 118 110 106 107 105 100 97 94 90 82 74 71 68 67 68 65 66 67 63 55 44 34 25 11 1 356 345
235 246 345 5 337 320 165 218 190 146 148 145 151 146 139 147 148 165 171 353 82 130 143 145 144 149 150 151 155 160 162 163 166 169 173 171 170 167 163 160 153 150 145 142 136 131 131 129 128 125 124 126 125 124 121 121 122 121 122 121 118 115 114 113 112 113 117 119 120 116 109 105 107 107 105 101 97 90 81 72 66 65 64 63 66 65 64 61 58 51 39 33 26 16 9 7 1
239 305 55 49 36 43 158 189 171 148 148 138 142 139 149 158 151 171 182 47 114 124 132 139 140 145 148 150 157 163 165 166 168 173 176 176 174 168 163 161 156 152 146 144 136 132 135 132 130 127 127 128 126 125 122 121 119 119 121 119 118 117 115 113 113 113 112 114 116 114 111 111 111 108 105 100 93 82 70 65 61 58 59 60 64 64 59 54 49 39 31 24 19 17 16 15 16
225 259 58 59 48 71 118 134 108 117 127 127 133 133 149 150 140 160 141 113 131 129 133 138 140 146 152 156 159 165 168 168 168 172 178 180 174 166 163 161 156 153 147 146 139 135 137 134 132 129 129 128 127 127 125 122 119 119 119 117 118 117 113 113 113 112 111 112 114 116 116 115 113 108 105 98 85 74 64 62 55 52 56 60 62 56 51 46 36 27 22 17 13 14 14 13 17
193 162 79 72 53 69 101 103 91 96 104 128 130 112 98 107 133 145 126 133 137 135 138 141 146 151 159 163 162 167 172 171 169 174 182 180 173 170 168 163 158 156 151 148 142 138 138 136 133 131 131 131 130 130 129 125 122 122 118 116 118 115 111 114 113 112 112 109 111 115 116 116 112 108 104 92 77 67 62 57 50 51 55 59 57 47 43 35 26 21 15 10 7 8 8 8 14
123 125 90 73 66 65 92 97 72 77 70 79 126 112 92 137 190 166 141 149 143 141 144 147 153 157 163 168 167 172 176 176 172 173 181 181 179 177 174 169 162 158 154 151 146 142 141 137 135 135 135 135 134 133 133 129 126 124 121 117 119 117 113 112 110 110 111 109 113 115 115 115 112 106 98 81 69 60 55 53 53 57 52 53 52 40 34 28 21 17 10 4 360 360 4 8 18
125 126 93 69 76 67 66 90 51 58 65 21 112 112 88 163 230 176 147 157 153 148 151 155 160 161 167 171 170 175 180 179 173 174 182 184 183 182 181 175 165 160 158 156 150 147 145 140 139 138 138 140 136 134 134 131 128 127 125 121 121 120 114 111 109 110 113 115 118 117 116 116 111 102 88 72 64 53 48 52 54 54 49 45 43 36 29 24 19 12 4 358 352 354 4 15 29
133 135 97 77 92 72 50 80 38 43 78 351 56 109 178 188 207 148 149 158 156 152 156 161 163 163 169 173 174 178 182 181 179 183 185 183 180 179 181 175 166 161 160 159 154 151 148 144 144 142 143 144 140 137 137 133 131 130 128 125 124 122 116 112 110 112 117 120 121 122 122 119 110 97 82 70 61 50 49 55 51 47 46 40 35 35 30 23 16 6 359 354 349 355 9 23 37
136 128 132 104 118 91 38 75 53 37 25 340 332 179 198 189 169 148 157 157 154 155 161 165 166 167 171 175 179 182 185 187 190 191 185 180 177 177 178 173 169 160 157 161 159 157 153 150 150 148 150 149 144 142 141 139 137 135 133 130 127 123 117 114 112 115 118 121 124 126 127 119 109 98 86 71 60 50 49 52 49 43 40 35 33 34 29 20 12 3 356 355 354 1 16 27 36
129 142 164 39 311 111 38 101 100 104 324 348 305 235 194 180 161 159 164 161 160 161 165 169 170 171 174 177 183 185 189 196 199 196 187 181 177 178 178 174 174 165 158 161 162 161 158 158 156 155 157 156 153 150 148 148 145 141 139 135 131 125 122 118 118 122 124 128 130 130 127 119 113 103 91 75 59 54 51 48 47 41 35 33 32 32 26 15 10 1 353 356 360 5 19 27 32
81 225 196 35 296 167 122 145 158 205 196 60 248 235 173 172 163 163 169 168 168 165 165 172 174 176 177 178 186 190 190 196 200 200 192 184 178 179 179 176 178 175 167 164 162 163 163 163 163 161 163 162 160 158 154 153 150 148 144 140 136 129 127 126 128 132 137 140 139 136 130 121 115 107 94 75 63 58 54 51 47 39 37 36 31 28 25 15 10 0 352 357 4 8 19 28 30
66 271 304 76 225 257 184 154 188 203 161 201 245 236 89 158 163 162 171 175 173 168 167 173 177 179 181 182 188 190 186 190 197 200 195 187 182 179 178 179 180 179 177 172 166 166 167 168 169 168 169 168 167 165 160 156 155 153 150 147 142 135 134 136 137 141 145 150 151 147 139 130 124 120 103 76 75 69 59 56 48 42 42 39 32 28 25 16 8 2 358 2 12 15 20 31 32
168 222 304 225 235 279 257 148 186 184 174 203 234 246 305 132 159 165 172 177 176 173 171 175 179 180 184 187 188 186 186 192 198 198 194 188 183 178 177 179 181 182 183 180 175 172 170 171 174 176 175 173 173 170 165 162 162 162 160 158 153 149 149 149 144 141 146 154 160 155 145 137 131 123 103 82 83 72 64 61 47 44 44 40 35 29 22 14 4 2 5 10 18 20 19 22 29
79 129 319 264 230 235 275 314 166 178 192 199 203 232 266 139 156 170 174 177 180 179 174 176 181 182 184 188 190 188 190 200 201 195 190 187 180 175 175 176 179 182 183 184 182 178 175 174 177 181 180 178 177 174 170 169 170 169 169 168 166 164 161 160 150 140 140 147 161 164 150 136 126 110 89 71 71 70 70 62 46 41 42 41 36 25 18 12 3 6 13 17 19 17 11 4 2
37 44 330 308 292 235 286 327 160 186 205 201 196 215 226 165 169 176 175 178 184 181 174 177 184 184 186 190 192 190 197 205 200 191 186 184 180 174 172 174 177 180 183 187 187 185 182 178 178 182 183 181 179 177 174 174 174 173 174 175 177 176 172 167 159 148 138 139 156 165 150 132 116 95 75 59 61 74 83 67 49 42 42 44 37 23 17 15 9 10 16 22 23 20 18 7 321
339 331 301 295 299 306 14 17 163 202 223 210 199 204 202 176 177 180 175 177 184 183 178 180 184 186 189 193 193 194 202 204 188 183 183 181 178 173 171 172 175 177 183 191 191 190 187 183 181 182 184 184 181 178 177 176 176 176 178 179 178 178 180 177 174 171 158 149 156 157 150 134 107 70 57 55 59 77 85 71 53 41 40 40 28 15 13 17 16 14 16 23 30 34 34 28 15
296 302 299 285 268 312 1 303 173 192 248 221 187 198 203 182 177 180 175 179 187 186 183 183 184 188 192 193 195 198 201 191 175 177 180 180 177 173 172 174 177 178 183 191 193 192 192 189 185 184 185 187 186 182 180 180 181 180 180 182 180 180 186 184 182 186 182 175 178 177 185 204 258 317 1 43 78 98 86 70 43 27 25 20 12 7 7 14 20 25 27 24 25 34 37 33 35
290 302 287 292 225 132 70 143 158 178 230 220 180 197 206 178 169 176 184 189 193 189 188 187 184 187 192 194 196 196 190 180 179 181 180 182 178 173 175 179 183 184 184 190 195 196 196 195 194 191 190 191 192 188 186 187 187 186 185 186 183 183 196 201 197 199 202 206 219 234 244 252 262 269 273 304 73 142 117 63 21 7 0 355 359 2 7 13 24 33 34 30 21 26 36 33 27
255 260 276 302 157 202 276 134 144 180 196 289 197 197 200 169 157 158 195 200 191 180 184 187 185 190 194 195 196 194 189 184 184 183 181 180 178 175 179 184 185 185 185 188 194 197 198 201 201 198 196 195 196 194 193 193 193 192 194 199 202 208 219 224 218 213 219 224 231 243 250 250 247 245 254 273 296 165 148 8 356 353 346 347 355 2 8 10 23 33 33 35 27 17 32 36 33
243 233 248 260 194 203 298 129 148 182 188 182 188 188 200 192 183 178 183 214 201 176 178 185 189 195 198 196 196 196 192 187 184 184 181 180 182 182 182 185 186 186 188 191 194 197 199 202 203 201 200 200 199 198 197 197 198 200 204 210 216 221 223 223 215 210 217 222 225 232 239 245 237 229 240 255 268 263 282 324 333 342 342 349 358 3 359 358 17 30 31 37 34 28 31 36 44
265 224 226 236 193 162 133 149 167 215 214 181 182 219 237 187 202 198 174 193 208 195 192 194 187 188 197 201 200 199 197 191 187 185 183 184 186 184 181 184 188 191 193 193 194 197 198 201 204 202 202 202 202 200 199 199 201 206 211 213 211 210 206 204 203 198 201 205 206 211 223 237 230 222 229 236 250 273 279 308 319 315 321 336 348 351 347 347 7 21 27 35 37 39 44 41 45
267 238 198 176 160 152 148 167 193 274 294 169 195 238 321 171 225 210 178 194 204 200 204 201 186 183 195 204 201 197 199 196 192 190 187 187 185 183 184 188 192 196 195 193 192 194 196 200 203 203 203 204 204 202 201 202 206 211 217 216 213 211 208 211 211 204 203 205 205 210 217 225 224 218 222 227 237 255 261 289 308 300 301 302 300 328 335 338 347 2 19 29 33 41 51 50 36
259 55 134 146 150 156 159 175 206 314 357 202 199 207 331 277 239 200 180 199 207 204 210 206 194 192 196 204 203 196 198 197 193 193 191 190 186 185 190 192 195 196 194 191 190 190 195 201 203 203 205 207 206 205 205 208 212 218 221 221 224 224 219 223 225 221 220 219 220 223 218 218 223 219 221 226 232 238 245 270 293 293 297 283 272 302 322 328 326 329 355 6 12 27 40 44 35
38 97 115 124 134 147 158 180 193 9 298 244 190 164 222 257 220 172 179 203 211 206 210 211 204 199 196 201 204 199 197 196 193 193 193 192 190 191 194 194 194 193 192 191 190 190 194 200 204 204 206 208 209 208 210 215 220 222 223 224 229 231 231 234 237 236 233 228 228 232 230 227 229 227 225 225 230 233 234 252 278 280 291 286 278 295 307 320 317 298 321 343 352 2 10 23 31
114 119 107 104 116 116 113 163 138 68 285 272 190 169 201 263 199 173 182 205 215 206 208 212 208 201 197 200 202 200 197 197 197 194 192 193 194 196 195 194 192 190 190 191 191 191 194 199 205 207 207 207 209 211 216 221 223 223 224 226 230 234 237 239 240 240 237 231 229 233 237 236 235 236 232 227 227 225 224 240 268 271 277 277 275 286 292 306 310 290 291 315 326 337 345 354 3
129 124 108 106 109 97 90 77 8 289 262 296 192 176 191 270 219 191 194 200 200 200 203 208 210 203 198 200 199 198 196 196 198 196 194 194 196 196 193 192 192 190 188 189 192 194 195 198 205 208 208 207 210 214 220 224 222 222 224 227 230 234 237 237 236 235 234 233 230 232 238 240 240 241 242 237 227 221 225 242 265 265 264 264 264 279 288 295 303 288 279 291 305 322 332 334 325
141 130 129 129 100 100 130 106 158 253 256 4 46 177 191 231 235 207 219 206 185 193 194 197 208 208 198 199 199 196 195 194 196 197 195 194 194 192 191 191 190 188 187 187 192 195 195 198 204 207 208 209 211 215 219 221 219 220 223 226 229 233 236 234 231 231 233 233 230 231 238 240 241 241 242 239 228 226 236 247 261 265 261 258 255 265 275 280 288 284 278 281 290 306 321 325 314
167 147 155 169 94 187 230 230 225 247 258 29 43 178 201 241 251 209 213 216 196 195 190 190 204 207 197 194 194 192 192 193 194 195 193 191 190 190 190 189 187 188 189 189 191 195 196 200 204 206 208 210 212 214 217 217 217 219 221 223 227 231 235 235 234 235 236 237 235 234 236 236 238 241 241 238 231 230 238 245 256 265 263 257 249 251 261 268 272 276 275 270 277 290 304 309 302
187 169 170 187 173 203 234 199 246 269 254 100 128 191 240 258 260 210 200 204 205 203 194 191 199 199 193 192 192 190 190 192 193 192 191 190 190 191 191 189 187 191 194 193 192 193 195 199 203 205 208 212 213 213 214 214 216 219 221 223 227 230 232 235 237 238 239 244 245 240 235 230 233 239 241 240 236 234 239 246 252 260 263 257 251 250 257 267 271 273 272 269 272 280 287 292 292
188 180 191 201 179 216 253 200 234 269 234 148 153 192 245 224 303 231 201 191 197 205 201 201 204 194 183 185 189 188 189 191 190 190 191 191 191 192 190 189 191 193 195 194 193 192 193 198 204 206 208 212 213 213 213 215 216 219 221 223 225 227 231 237 241 245 248 251 250 245 241 236 234 240 246 248 245 240 243 250 254 259 263 259 254 253 256 266 273 275 275 276 275 276 279 281 283
156 337 240 228 214 246 276 190 225 225 240 215 182 220 254 234 276 259 198 182 191 203 198 201 213 195 174 180 186 188 190 189 188 190 192 193 192 191 190 191 193 193 193 194 193 193 195 200 205 208 210 212 214 214 215 216 217 219 221 221 222 224 229 236 243 249 253 253 251 249 248 246 246 249 252 254 251 247 248 255 257 259 263 261 254 252 253 259 265 270 274 279 279 275 274 275 277
155 215 210 160 50 287 203 125 99 161 248 225 187 240 258 260 255 202 177 189 194 199 195 195 203 191 178 182 184 185 187 184 185 188 190 191 191 192 192 193 194 194 194 194 195 197 200 203 206 208 209 211 213 215 217 218 219 219 220 220 220 223 228 233 239 245 247 249 251 251 248 249 253 255 254 254 255 253 253 257 259 259 261 259 252 252 256 256 259 263 266 272 274 270 273 274 275
182 190 181 136 152 35 31 259 232 246 263 246 195 251 270 256 259 177 179 200 196 195 196 195 195 191 188 188 184 183 183 182 184 186 188 189 189 191 193 194 194 195 195 196 199 203 205 206 207 208 208 209 212 214 215 217 219 219 219 220 220 224 229 229 232 237 237 239 245 246 245 248 255 257 254 256 258 257 257 260 262 262 259 256 253 256 259 260 262 263 264 269 268 265 268 270 269
52 122 85 66 181 175 36 314 284 272 281 276 215 262 269 229 225 175 199 208 200 194 196 196 197 197 196 190 186 187 187 185 185 187 188 189 190 192 192 193 194 196 197 199 201 202 203 204 206 208 210 211 212 210 211 216 219 217 216 219 222 225 228 229 231 234 231 230 233 236 241 248 254 256 257 259 257 254 257 260 261 261 259 256 256 259 261 262 264 261 262 267 265 262 263 264 265
77 110 68 7 88 177 175 281 281 273 283 288 283 299 269 220 231 307 244 226 205 193 193 198 200 199 195 188 187 188 188 186 185 188 190 191 193 194 193 193 194 195 198 199 198 198 200 201 203 206 208 210 210 208 211 216 217 215 215 219 222 226 229 230 233 234 228 226 227 231 237 242 247 251 253 255 252 251 254 255 255 255 254 254 257 259 259 261 263 261 261 266 265 262 260 262 266
170 155 125 38 115 155 183 223 263 264 271 282 288 294 291 82 24 313 289 264 220 199 195 198 198 191 183 188 194 187 185 188 186 188 191 191 194 195 195 195 195 196 198 197 195 197 199 199 201 205 205 206 207 207 212 216 215 214 216 218 221 225 228 228 229 231 229 228 231 234 236 239 244 248 247 248 250 253 255 255 253 252 253 256 260 262 261 260 263 263 265 269 267 264 262 264 268
92 100 100 183 203 195 199 234 244 239 251 261 277 290 304 63 10 317 306 289 235 205 197 194 191 185 181 194 201 190 186 190 189 191 192 190 191 193 192 193 194 195 196 196 196 196 197 197 200 203 203 206 207 207 213 217 217 218 219 218 219 221 224 225 224 226 228 230 233 237 239 240 241 244 246 246 246 250 254 254 253 254 256 260 265 267 263 259 261 263 265 267 265 264 265 266 269
Height
790 791 791 792 791 792 793 794 806 806 804 817 819 819 816 809 808 810 814 814 813 813 807 808 809 811 815 817 818 817 819 820 822 828 829 822 818 820 821 822 824 825 827 828 829 830 831 832 833 834 835 836 837 837 838 838 838 838 837 836 836 836 836 836 837 837 837 838 838 838 839 840 841 841 842 842 843 844 844 844 843 843 843 843 843 844 844 844 845 845 845 846 846 847 849 850 850
789 791 791 792 791 794 796 794 809 812 809 822 820 816 813 808 809 811 813 812 810 808 805 807 809 811 812 811 812 816 819 818 817 819 820 820 820 822 822 823 825 826 827 829 830 831 832 832 833 833 834 834 835 835 836 836 836 836 836 836 836 836 837 837 837 838 838 839 839 840 840 841 842 842 843 843 844 845 845 846 845 844 844 844 844 845 845 846 846 847 847 847 846 846 849 851 852
789 791 790 792 791 793 796 797 811 815 814 824 821 813 809 810 810 809 809 807 805 803 805 808 811 812 813 815 816 819 821 818 817 817 819 820 821 822 823 825 826 827 828 829 830 831 832 832 833 833 833 834 834 835 835 835 836 836 836 836 837 837 837 838 838 839 839 840 841 842 842 842 843 843 844 844 845 846 846 848 848 846 845 845 845 846 846 847 848 849 849 849 847 846 849 853 854
789 790 790 791 793 795 799 805 811 812 816 822 820 812 807 809 809 809 808 805 803 803 806 809 813 812 812 820 819 819 821 818 818 817 819 820 820 822 824 825 826 828 829 830 831 832 832 833 833 833 833 834 834 835 835 835 836 836 836 837 837 838 838 838 839 840 840 841 842 843 843 844 844 845 845 846 847 847 847 850 851 849 846 845 846 847 847 848 849 851 852 852 851 849 849 853 855
789 790 790 790 796 799 801 808 808 810 817 816 815 811 807 807 808 810 808 806 803 804 807 808 815 812 811 818 818 820 821 819 819 818 819 820 821 822 824 826 827 828 829 830 831 832 832 833 833 833 834 834 834 835 835 835 836 836 837 837 838 839 838 839 840 840 841 842 842 843 844 845 846 847 846 846 848 849 848 850 853 851 848 846 846 847 848 849 850 851 853 855 855 854 852 853 855
789 789 788 789 794 795 802 810 810 812 813 809 810 809 806 806 807 808 808 807 804 804 806 807 812 813 816 817 815 818 818 818 819 818 819 821 822 824 825 826 828 829 830 831 832 832 833 833 834 834 834 835 835 835 835 835 836 837 838 838 838 839 839 840 840 841 842 843 843 843 845 846 847 848 848 847 847 849 850 851 855 854 851 849 847 848 849 850 851 852 854 855 857 857 856 855 856
788 790 790 793 794 795 807 812 812 814 810 806 808 807 806 805 805 806 808 809 809 807 806 808 807 812 821 819 817 818 816 818 817 819 821 821 824 824 826 827 828 830 831 831 832 833 833 834 834 835 835 835 836 836 836 836 837 838 838 839 839 839 839 841 841 842 843 844 844 844 846 847 848 849 849 849 847 850 851 851 856 857 854 850 848 849 850 851 852 853 855 856 857 858 859 858 857
788 791 791 797 801 803 813 813 812 813 808 806 805 804 805 805 803 805 808 809 811 810 808 808 806 815 823 818 821 821 817 819 818 820 822 822 825 826 827 828 829 830 831 832 833 833 834 834 835 836 836 836 837 837 837 838 838 838 838 839 840 840 840 841 842 843 844 845 845 846 847 848 849 850 850 850 849 851 852 852 856 858 855 851 850 851 852 853 854 855 856 857 858 859 860 860 861
787 791 793 799 804 809 815 814 812 810 807 806 805 805 804 804 803 804 808 809 810 810 811 809 806 817 824 820 823 821 818 820 819 822 823 824 826 827 829 829 831 831 832 833 833 834 834 835 836 837 837 838 838 838 838 838 838 837 838 840 840 841 841 842 843 843 844 845 846 847 848 849 850 850 850 850 850 853 853 853 857 858 855 852 852 852 853 854 855 856 857 857 858 859 859 861 863
789 791 796 801 805 813 818 816 814 811 808 806 805 805 805 804 804 805 808 810 809 811 812 807 808 817 822 824 825 821 820 822 821 824 825 826 827 828 830 830 832 832 833 834 834 835 835 837 837 838 838 839 839 838 838 839 839 838 838 840 841 841 842 843 843 844 845 847 847 848 849 850 850 850 850 851 852 854 854 855 858 858 855 854 854 854 855 855 856 857 858 858 859 859 859 862 864
794 794 796 804 809 816 819 818 816 812 808 805 805 804 803 803 804 807 808 811 810 811 811 808 814 817 820 825 825 822 822 823 823 825 826 827 828 829 830 831 832 833 834 834 835 836 837 838 839 839 838 839 840 839 839 839 839 838 838 840 842 842 842 844 845 846 847 848 848 848 849 850 850 851 852 853 854 855 855 857 859 858 856 855 855 856 856 857 857 857 858 859 860 860 862 864 864
798 800 798 808 814 815 814 817 818 813 809 807 808 804 802 803 805 809 810 813 812 813 812 809 814 814 821 828 824 823 823 824 824 825 827 828 829 830 831 832 833 834 834 835 836 837 838 840 841 839 838 839 840 839 839 839 839 839 839 840 842 842 843 844 846 847 848 849 849 849 850 850 851 852 853 855 856 856 856 857 858 857 857 857 857 857 858 858 858 858 859 860 861 862 863 865 864
798 801 801 811 815 813 813 816 817 813 813 810 809 804 801 804 807 808 809 812 812 815 812 808 809 810 822 827 823 823 823 825 825 826 828 829 830 831 832 833 834 834 835 836 837 838 840 841 842 840 837 838 840 839 839 839 840 840 840 841 843 843 844 845 846 848 849 850 850 851 851 852 853 854 855 855 856 857 858 858 858 858 858 858 858 858 859 859 859 860 860 861 862 863 864 864 864
796 798 801 812 813 811 814 817 815 815 816 810 807 804 803 806 807 806 808 813 814 814 811 805 806 812 823 827 826 824 823 825 826 827 829 830 831 832 833 834 835 835 836 837 838 839 840 842 842 840 837 838 840 840 839 840 840 841 842 843 844 844 845 846 847 848 849 850 852 852 853 854 855 857 856 856 857 859 859 860 859 859 859 859 859 859 859 859 860 860 861 862 863 864 864 864 864
794 796 800 811 812 812 815 817 814 816 817 809 806 804 805 807 806 807 808 813 816 809 807 807 806 814 821 824 827 823 822 825 826 828 829 830 832 833 834 834 835 836 837 838 839 840 841 842 842 840 838 838 841 840 840 841 841 842 843 844 844 846 846 847 848 849 850 851 853 854 855 856 858 858 858 858 860 861 860 861 860 860 859 859 859 859 859 859 860 861 861 862 863 864 864 864 863
791 795 802 810 814 815 815 813 814 818 815 806 805 803 808 810 804 809 807 807 813 808 808 811 808 811 815 818 820 819 822 825 826 828 829 831 832 833 834 835 836 837 838 838 840 841 842 843 842 840 838 839 842 841 841 842 842 843 845 845 845 847 848 849 850 851 852 853 854 856 858 858 858 859 860 861 862 862 861 861 861 860 860 859 859 859 860 860 861 861 862 863 863 863 863 863 863
790 797 806 812 814 816 814 812 814 817 811 806 806 802 810 814 807 808 805 804 812 812 811 812 808 808 811 814 816 819 823 825 826 828 829 832 833 834 835 835 837 837 839 839 841 842 843 843 842 840 838 840 842 842 842 842 843 844 846 846 847 848 849 850 851 852 852 852 855 857 858 859 860 862 863 863 862 862 862 861 861 860 860 860 860 860 861 861 862 862 862 863 863 863 863 863 863
796 804 810 812 813 813 810 809 809 809 808 807 806 803 808 813 811 807 807 811 813 814 814 812 811 810 811 814 817 821 823 825 827 828 829 831 832 834 835 835 837 838 839 840 841 842 843 844 843 841 839 840 842 843 843 842 844 845 846 848 849 850 850 852 853 854 854 855 857 859 860 862 863 864 863 863 863 863 862 862 861 861 861 861 861 861 862 862 862 863 863 863 863 863 864 864 864
801 808 812 812 809 807 803 803 804 804 805 806 805 804 806 809 809 807 812 819 815 817 819 815 816 816 815 816 819 822 823 825 827 828 830 831 832 833 835 836 837 838 839 840 842 843 844 844 844 843 841 841 843 844 844 844 845 845 847 848 850 851 852 854 856 858 859 859 861 862 863 864 864 863 863 863 863 863 863 862 862 863 863 863 863 863 863 863 863 863 863 864 864 864 864 864 865
801 806 812 810 804 804 801 801 802 801 801 805 807 805 806 807 806 807 814 819 817 818 819 817 820 820 818 818 819 822 824 826 827 828 830 831 833 834 835 836 837 839 840 841 842 843 844 845 845 844 843 842 843 845 846 846 846 847 848 849 850 851 853 855 857 858 860 861 862 862 863 863 863 863 863 863 863 863 863 863 864 864 864 864 864 864 864 864 864 864 864 864 864 864 865 865 865
802 804 809 806 802 805 803 800 800 799 799 803 806 807 809 807 804 808 812 819 821 817 813 813 816 817 817 818 819 822 824 825 827 828 830 832 833 834 835 836 838 839 840 841 842 843 844 845 846 845 844 844 844 846 847 848 848 849 849 850 851 852 853 855 856 857 859 860 861 861 862 862 862 863 863 863 863 864 864 864 865 865 865 864 864 864 864 864 864 865 865 865 865 865 865 865 865
803 803 803 802 802 806 804 800 799 798 799 803 806 808 808 806 806 809 810 816 817 811 809 809 811 812 814 816 819 821 823 825 827 828 830 832 834 835 836 837 838 839 841 842 842 843 844 845 846 846 846 845 845 846 848 849 850 850 851 851 852 853 854 855 856 857 858 859 860 861 861 862 862 863 863 864 864 864 865 865 865 865 865 865 864 864 865 865 865 865 865 865 866 866 865 865 865
804 804 801 801 801 804 804 801 799 798 801 805 806 805 804 807 811 809 809 812 809 805 806 808 810 812 813 816 818 821 822 825 826 828 830 832 834 835 836 837 838 840 841 842 842 843 844 845 846 847 847 847 847 847 848 850 851 851 852 852 853 854 854 855 857 858 859 859 860 861 861 862 863 863 864 864 865 865 865 866 865 865 865 865 865 865 865 866 866 866 866 866 866 866 866 865 865
804 806 802 802 801 803 803 801 799 798 801 803 801 803 806 810 812 810 810 811 806 804 805 808 811 813 815 817 818 821 822 824 826 829 831 832 834 835 836 838 839 840 841 842 843 844 844 845 846 847 848 848 848 849 850 850 851 852 853 854 854 855 856 857 858 858 859 860 860 861 862 863 864 864 865 865 866 866 866 866 866 865 865 866 866 866 866 866 866 866 866 866 866 866 865 865 865
804 806 804 803 803 802 801 800 800 800 801 801 802 807 809 808 809 811 813 810 807 806 806 809 812 814 817 818 819 821 822 824 826 829 831 833 834 836 837 838 839 840 841 842 843 844 845 845 847 847 848 849 850 850 851 852 852 853 854 855 856 857 857 858 859 859 860 861 861 862 863 864 865 865 866 866 866 866 866 866 866 866 866 866 866 867 867 867 867 867 866 866 866 866 865 865 865
802 803 804 804 805 803 801 802 802 802 803 802 806 812 811 807 808 813 813 809 808 807 809 811 813 817 819 819 820 821 822 824 826 828 831 833 835 836 837 839 839 840 841 842 843 844 845 846 847 848 849 850 851 851 852 853 854 854 855 856 857 857 858 859 860 861 861 862 863 863 864 864 865 866 866 866 866 866 866 867 867 867 867 867 867 867 867 867 867 867 867 866 866 866 866 866 866
799 802 804 805 806 803 802 804 805 804 805 805 810 816 813 808 811 816 813 808 808 809 812 813 815 818 819 820 820 821 823 824 826 828 830 832 834 836 837 839 840 840 841 842 843 844 845 846 847 848 849 850 851 852 853 854 855 855 856 857 857 858 859 860 861 862 862 863 864 864 865 865 866 866 867 867 867 867 867 867 867 867 868 868 868 868 868 868 868 867 867 867 866 866 866 866 866
798 801 805 807 805 806 805 807 808 807 809 808 809 815 815 812 813 813 810 808 808 811 815 815 816 819 819 821 821 822 823 824 826 827 829 831 833 835 837 838 840 841 842 843 843 844 845 847 848 849 850 851 852 853 854 854 855 856 857 858 858 859 860 861 862 863 863 864 864 865 865 866 867 867 867 868 868 868 868 868 868 868 869 869 869 869 868 868 868 868 867 867 867 866 866 866 867
800 800 808 811 807 810 810 810 812 811 814 811 810 821 823 817 816 811 808 808 808 812 815 816 817 819 820 821 821 823 823 825 826 827 828 830 832 834 836 838 839 841 842 843 844 845 846 847 848 849 850 851 852 853 854 855 856 857 858 859 860 860 861 862 863 864 864 865 865 866 867 867 868 868 868 868 868 869 869 869 869 869 869 869 869 869 869 869 868 868 868 868 867 867 867 867 867
802 802 808 812 812 815 812 812 816 815 817 812 816 832 829 818 814 810 808 808 811 815 816 817 818 819 820 821 822 823 823 824 825 826 828 829 831 833 835 837 839 840 842 843 844 845 846 847 848 849 850 851 852 853 854 855 856 857 859 860 861 861 862 863 864 865 865 866 866 867 867 868 869 869 869 869 869 870 870 870 870 870 870 870 870 869 869 869 869 869 868 868 867 867 867 867 868
805 808 808 812 819 820 812 812 818 820 819 814 821 834 827 817 814 810 808 808 811 816 817 817 818 819 820 821 822 823 823 824 825 826 828 829 831 833 835 837 838 840 841 843 844 845 846 847 848 849 850 851 852 854 855 856 857 858 859 860 861 862 863 864 865 866 866 867 867 868 868 869 869 870 870 870 870 870 871 871 871 871 871 871 870 870 870 870 870 869 869 868 868 868 868 868 868
808 814 818 818 821 820 813 812 816 819 818 816 824 831 825 818 814 810 809 809 811 814 817 817 818 819 820 821 822 823 823 824 825 826 828 829 830 832 834 836 837 839 841 842 844 845 847 847 848 850 851 852 853 854 855 856 857 858 860 861 862 863 864 865 866 867 867 868 868 869 869 870 870 871 871 871 871 871 871 871 871 871 871 871 871 871 871 871 871 870 869 869 869 868 868 868 869
811 814 821 823 823 820 816 813 812 814 819 821 825 828 825 819 814 810 809 810 812 814 816 817 818 819 819 821 822 822 823 824 825 826 827 829 830 832 833 835 837 838 840 842 843 845 847 848 849 850 851 852 853 854 855 857 858 859 860 861 862 863 864 865 866 867 868 868 869 869 870 870 871 871 871 871 871 872 872 872 872 872 872 872 872 872 872 871 871 871 870 869 869 869 869 869 869
814 815 819 822 823 822 819 817 812 812 819 824 825 826 823 818 814 812 810 810 812 814 816 817 817 819 819 820 821 822 824 824 824 824 826 828 829 831 833 834 836 838 840 841 843 844 846 848 849 850 851 852 853 855 856 857 858 860 861 862 863 863 865 866 866 867 868 868 869 869 870 870 871 871 871 871 872 872 872 872 872 872 872 872 872 872 872 872 872 871 871 870 870 869 869 870 870
814 817 818 818 819 820 820 817 813 813 819 823 826 827 822 818 816 813 811 811 813 814 815 816 817 818 819 820 821 822 823 823 822 823 825 827 829 831 832 834 836 838 839 841 843 844 846 847 849 850 851 852 854 855 856 858 859 860 861 862 863 864 865 865 866 867 867 868 869 869 870 870 871 871 871 872 872 872 873 873 873 873 873 873 873 873 873 873 873 872 872 871 870 870 870 870 870
812 814 814 816 816 818 818 814 811 812 820 824 826 826 822 820 819 815 812 811 813 814 814 816 817 817 819 820 820 821 822 821 820 822 825 827 828 830 832 833 835 837 839 841 842 844 845 847 848 849 851 852 854 855 856 858 859 860 861 862 863 864 865 865 866 867 867 868 869 869 870 870 871 871 871 872 872 872 873 873 873 873 873 873 873 874 874 873 873 873 872 872 871 871 870 870 870
811 812 813 815 817 819 816 815 812 811 819 825 821 822 822 821 820 815 812 812 814 815 816 817 817 818 819 819 820 820 821 820 820 822 825 826 828 829 831 833 835 837 839 840 841 843 844 846 847 849 850 852 853 854 855 857 858 859 861 862 863 864 865 865 866 867 868 868 869 869 870 870 871 871 871 872 872 873 873 873 873 874 873 874 874 874 874 874 873 873 873 872 872 871 871 871 871
809 811 814 817 820 820 816 815 813 811 819 824 820 824 824 820 819 816 813 813 814 813 815 817 817 818 818 818 819 819 819 819 820 822 824 826 827 829 831 832 834 836 837 839 841 843 844 845 847 848 850 851 852 854 855 856 857 859 860 861 863 864 865 865 866 867 867 868 868 869 869 870 870 871 872 872 872 873 873 873 873 874 874 874 874 874 874 874 874 874 873 873 872 872 872 871 871
808 811 814 817 818 819 818 816 814 813 820 825 823 826 826 819 819 818 815 813 811 810 811 813 815 817 818 818 819 818 820 820 820 821 822 824 826 828 830 831 833 835 836 839 840 842 844 845 846 848 849 850 852 853 854 856 857 858 860 861 862 863 864 865 866 866 867 868 868 869 869 870 871 871 872 872 872 873 873 873 873 874 874 874 874 874 874 874 874 874 873 873 873 872 872 871 871
808 811 814 817 817 820 821 819 818 815 818 822 822 826 826 822 821 821 817 813 811 811 810 811 812 815 815 815 816 817 819 821 821 821 821 823 825 827 829 830 832 834 836 838 840 841 843 844 846 847 848 850 851 853 854 856 857 858 860 860 862 863 864 864 865 866 867 867 868 869 869 870 871 871 872 872 872 873 873 873 873 874 874 874 874 874 875 875 874 874 874 873 873 872 872 872 872
806 808 811 814 816 818 819 819 819 817 817 816 821 832 831 825 826 824 819 816 815 813 813 813 813 813 814 814 815 815 817 818 820 820 820 821 823 825 827 829 831 833 834 836 838 840 842 843 845 846 848 849 851 852 854 855 857 858 859 860 861 862 863 864 865 866 866 867 868 869 869 870 870 871 872 872 873 873 873 873 874 874 874 874 874 875 875 875 875 874 874 874 873 873 873 873 872
805 804 804 807 810 814 818 819 819 823 826 817 820 838 837 826 826 825 821 820 818 815 814 815 814 814 815 815 815 814 815 815 816 817 818 819 821 823 826 828 830 831 833 834 837 839 841 843 844 846 847 849 850 852 853 855 856 857 859 860 861 862 863 864 865 865 866 867 868 868 869 869 870 871 872 872 873 873 873 874 874 874 874 875 875 875 875 875 875 875 875 874 874 873 873 873 873
808 803 799 803 808 813 818 819 819 825 829 820 819 836 840 832 827 822 821 822 818 816 815 813 814 814 814 814 813 813 814 814 814 815 816 817 819 822 824 826 828 830 831 833 835 838 840 842 843 845 847 848 850 851 853 854 856 857 858 859 861 862 863 863 864 865 866 867 867 868 869 869 870 871 871 872 873 873 874 874 874 875 875 875 875 875 875 875 875 875 875 875 874 874 874 874 874
807 802 800 805 808 814 817 817 819 820 821 821 822 830 840 838 827 816 818 822 819 816 815 813 812 812 812 811 811 811 812 812 813 814 814 816 818 820 822 824 825 828 830 833 834 836 838 840 842 844 846 848 849 851 852 854 855 856 858 859 860 861 862 863 864 865 866 866 867 868 869 869 870 870 871 871 872 873 874 874 874 874 875 875 875 875 875 875 875 875 875 875 875 874 874 874 874
806 801 801 805 808 813 813 815 819 819 822 826 822 827 841 838 823 815 817 822 822 817 814 812 811 810 810 810 809 809 809 809 810 812 813 814 816 818 820 822 824 827 829 831 833 835 837 839 842 843 845 847 848 850 852 853 855 856 857 858 859 860 861 862 863 864 865 866 867 868 868 869 869 870 870 871 872 872 873 874 874 874 875 875 875 875 875 875 875 875 875 875 875 875 875 875 875
803 800 801 805 809 811 814 818 820 823 830 829 819 823 839 837 824 821 823 822 821 815 810 808 807 807 808 807 807 807 808 808 808 809 810 812 814 816 818 821 823 825 828 830 832 835 837 839 841 842 844 846 848 849 851 852 854 855 857 858 859 860 861 862 863 864 865 866 867 867 868 868 869 869 870 870 871 872 872 873 873 874 874 875 875 875 875 875 875 875 875 875 875 875 875 875 875
796 798 805 810 812 813 818 822 822 831 836 824 815 817 831 837 826 818 817 810 808 809 809 808 804 805 806 805 805 805 806 807 807 808 809 811 813 815 818 820 822 825 827 829 832 834 836 838 839 841 843 845 847 848 850 851 853 854 855 857 858 859 860 861 862 863 864 865 866 867 867 868 868 869 869 870 870 871 872 873 873 874 874 874 874 875 875 875 875 875 875 875 875 875 875 875 875
793 799 804 813 821 820 825 828 828 839 838 822 815 815 826 838 824 809 804 797 797 803 806 807 805 803 803 802 802 802 803 805 806 807 808 809 812 815 817 819 821 824 825 827 830 832 835 836 838 840 842 844 845 847 849 850 851 853 854 856 857 858 859 860 861 862 863 864 865 866 867 867 868 868 869 869 870 871 872 872 873 873 873 874 874 874 875 875 875 875 875 875 875 875 875 875 875
796 800 803 817 833 835 836 840 837 838 831 820 818 819 828 829 808 796 798 795 794 794 795 799 800 799 799 799 799 799 800 802 804 806 807 808 811 813 815 818 820 822 824 826 828 831 833 835 837 838 840 842 844 845 847 849 850 852 853 855 856 857 858 859 860 861 862 863 864 865 866 867 867 868 868 869 870 871 871 872 872 873 873 873 874 874 874 875 875 875 875 875 875 875 875 875 875
798 799 802 815 833 843 847 848 846 838 827 818 817 822 829 820 796 787 789 790 790 788 789 791 791 793 794 794 796 796 798 800 801 803 805 806 808 810 813 816 818 820 822 824 826 829 831 833 835 837 838 840 842 844 845 847 849 850 852 854 855 856 857 859 860 861 862 862 863 864 865 866 866 867 868 868 869 870 871 871 872 872 872 873 873 873 874 874 874 875 875 875 875 875 874 874 874
795 791 794 802 812 828 838 839 840 837 828 823 823 825 824 813 796 784 780 782 785 785 787 788 787 787 789 791 794 795 797 798 799 801 802 803 806 808 811 813 815 818 820 822 825 827 829 831 833 835 837 839 840 842 844 845 847 849 851 853 854 855 857 858 859 860 861 862 862 863 864 865 866 866 867 867 868 869 870 870 871 871 872 872 872 873 873 874 874 874 874 874 874 874 874 874 874
798 789 796 803 799 805 820 825 823 826 829 827 824 819 806 797 789 780 779 783 784 785 787 789 790 787 787 791 793 793 795 796 797 799 800 802 804 806 809 811 813 816 818 820 822 824 826 828 830 832 835 837 838 840 842 844 846 847 849 851 853 854 855 857 858 859 860 860 861 862 863 864 864 865 866 866 867 868 869 869 870 870 871 871 871 872 872 873 873 874 874 874 874 874 873 873 874
801 798 802 801 792 794 812 824 819 821 830 824 816 811 799 793 788 779 781 785 783 785 786 787 790 788 789 791 790 791 793 793 795 796 798 800 802 805 807 809 811 814 816 818 820 821 824 826 828 830 833 835 837 838 841 842 844 846 848 849 851 853 854 855 856 857 858 859 860 861 862 862 863 864 865 865 866 867 868 868 869 869 870 870 870 871 871 872 872 873 873 873 873 873 873 873 873
797 804 799 792 793 794 805 824 827 826 830 819 810 810 806 805 799 786 784 787 784 784 784 785 787 788 789 788 788 789 789 790 792 792 795 797 800 803 804 807 809 811 813 815 816 819 821 824 826 829 831 833 835 837 839 841 842 844 846 848 850 851 852 854 855 856 856 857 858 859 860 861 862 863 863 864 865 865 866 867 867 868 869 869 869 870 870 871 871 872 872 872 872 872 872 872 872
787 794 791 794 810 812 810 825 835 836 836 822 809 808 805 801 796 788 786 784 782 782 782 783 784 785 786 786 786 788 787 789 791 791 793 795 797 800 802 805 807 809 812 813 815 817 820 823 825 827 829 831 833 836 837 839 841 843 845 846 848 850 851 852 853 854 855 855 857 858 859 860 860 861 862 863 864 864 865 865 866 867 867 868 868 869 869 870 870 870 871 871 871 871 871 871 871
784 788 793 799 810 818 818 823 826 832 838 829 816 810 799 787 785 785 785 780 778 780 781 780 780 780 781 782 784 786 787 789 790 790 792 792 794 797 799 802 804 807 810 811 814 816 818 821 823 825 828 830 832 834 836 837 839 841 843 844 846 848 849 851 851 853 853 854 855 856 857 858 859 860 861 861 862 863 864 864 865 866 866 867 867 868 868 868 869 869 870 870 870 870 870 870 870
792 795 803 805 807 812 816 817 812 816 829 831 826 816 793 779 782 784 782 778 775 775 776 777 777 776 778 779 780 783 785 786 787 788 789 790 792 795 797 800 802 805 808 810 812 815 816 819 821 823 826 828 830 832 833 835 837 839 840 842 844 845 847 849 850 851 852 853 854 855 856 857 858 859 860 860 861 861 862 863 864 864 865 865 866 866 867 867 867 868 868 869 869 869 869 869 869
793 796 803 806 806 807 816 823 812 804 813 817 819 815 792 777 781 780 778 776 772 771 773 774 774 775 777 777 777 779 782 784 785 785 786 788 790 793 795 798 801 804 806 808 810 813 814 816 818 820 823 825 827 829 831 833 835 836 838 840 842 843 845 846 848 849 850 852 853 854 855 856 856 857 858 859 860 860 861 862 862 863 863 864 864 865 865 866 866 867 867 868 868 868 868 868 868